DW0935 Weather Reports


Display with metric or nautical units.
time (UTC)temp
F
wind
direction
speed
MPH
gust
MPH
rain 1hr
in
rain 24hr
in
rain mn
in
humidity
%
barometer
mb
20260503183013 44 314 18.0 29.0 0.00 0.11 0.01 91 1006.1
20260503181511 44 304 15.0 27.0 0.00 0.11 0.01 91 1005.8
20260503180017 44 299 12.0 20.0 0.00 0.11 0.01 91 1005.6
20260503174510 45 305 14.0 23.0 0.00 0.11 0.01 90 1005.5
20260503173020 46 341 12.0 21.0 0.00 0.11 0.01 86 1005.2
20260503171520 49 295 13.0 24.0 0.00 0.11 0.01 78 1005.1
20260503150104 48 314 16.0 25.0 0.00 0.11 0.01 82 1004.5
20260503081517 46 332 9.0 14.0 0.00 0.10 0.00 96 1006.5
20260503071511 47 318 12.0 17.0 0.00 0.10 0.00 98 1006.8
20260503060121 48 242 1.0 3.0 0.00 0.10 0.00 98 1007.2
20260503054600 48 242 2.0 5.0 0.00 0.10 0.00 98 1007.8
20260503053053 48 235 3.0 6.0 0.00 0.10 0.00 98 1007.9
20260503051552 48 218 4.0 5.0 0.00 0.10 0.00 98 1008.1
20260503050047 48 191 2.0 4.0 0.00 0.10 0.00 98 1008.5
20260503044545 48 170 3.0 7.0 0.00 0.10 0.00 97 1008.9
20260503043044 48 192 3.0 7.0 0.00 0.10 0.00 97 1009.5
20260503041540 48 225 5.0 8.0 0.00 0.10 0.00 97 1009.7
20260503040040 48 202 4.0 8.0 0.00 0.10 0.10 98 1009.8
20260503034535 48 202 5.0 8.0 0.00 0.10 0.10 97 1010.0
20260503033038 48 187 4.0 8.0 0.00 0.10 0.10 97 1010.1
20260503031531 48 205 4.0 8.0 0.00 0.10 0.10 97 1010.2
20260503030029 48 195 4.0 10.0 0.00 0.10 0.10 97 1010.3
20260503024527 48 226 6.0 9.0 0.01 0.10 0.10 97 1010.4
20260503023126 48 194 6.0 10.0 0.01 0.10 0.10 97 1010.6
20260503021524 48 223 7.0 12.0 0.02 0.10 0.10 97 1010.9
20260503020022 48 182 8.0 15.0 0.02 0.10 0.10 97 1011.1
20260503014521 48 201 7.0 12.0 0.02 0.09 0.09 97 1011.3
20260503013021 48 206 7.0 12.0 0.02 0.09 0.09 97 1011.4
20260503011520 47 181 7.0 12.0 0.01 0.08 0.08 97 1011.4
20260503010019 47 171 9.0 15.0 0.02 0.08 0.08 97 1011.3
20260503004519 47 177 8.0 13.0 0.02 0.07 0.07 96 1011.4
20260503003018 47 206 8.0 14.0 0.02 0.07 0.07 96 1011.3
20260503001518 47 197 9.0 14.0 0.03 0.07 0.07 96 1011.4
20260503000018 47 183 6.0 12.0 0.02 0.06 0.06 96 1011.4
20260502234516 47 179 7.0 10.0 0.02 0.05 0.05 96 1011.3
20260502233018 47 176 7.0 11.0 0.02 0.05 0.05 95 1011.4
20260502231516 47 179 3.0 9.0 0.02 0.04 0.04 95 1011.4
20260502230018 47 189 4.0 9.0 0.02 0.04 0.04 95 1011.4
20260502224513 47 187 6.0 9.0 0.01 0.03 0.03 95 1011.3
20260502223013 47 166 4.0 8.0 0.03 0.03 0.03 95 1011.2
20260502221512 47 160 3.0 7.0 0.02 0.02 0.02 94 1011.3
20260502220011 47 156 4.0 8.0 0.02 0.02 0.02 94 1011.2
20260502214510 47 160 5.0 9.0 0.02 0.02 0.02 94 1011.3
20260502213008 48 174 7.0 10.0 0.00 0.00 0.00 93 1011.5
20260502211521 47 166 5.0 10.0 0.00 0.00 0.00 92 1011.5
20260502210005 47 154 4.0 8.0 0.00 0.00 0.00 91 1011.8
20260502204504 48 154 3.0 7.0 0.00 0.00 0.00 91 1011.8
20260502203005 48 156 5.0 9.0 0.00 0.00 0.00 90 1011.9
20260502201501 48 156 6.0 10.0 0.00 0.00 0.00 90 1012.2
20260502200100 48 156 7.0 11.0 0.00 0.00 0.00 89 1012.3
20260502200001 48 185 7.0 11.0 0.00 0.00 0.00 89 1012.2
20260502194603 48 163 6.0 11.0 0.00 0.00 0.00 89 1012.2
20260502193120 48 175 8.0 13.0 0.00 0.00 0.00 89 1012.0
20260502191557 48 172 9.0 13.0 0.00 0.00 0.00 88 1012.3
20260502190054 48 165 8.0 13.0 0.00 0.00 0.00 87 1012.6
20260502184553 49 205 7.0 14.0 0.00 0.00 0.00 86 1012.9